RH
59 57 56 58 62 63 67 69 70 65 66 66 66 66 69 88 83 79 71 78 75 77 80 88 93 99 100 98 95 96 90 95 79 67 80 70 74 72 74 78 80 70 62
59 56 55 56 60 64 66 69 70 68 68 68 67 65 64 66 89 79 74 77 76 76 79 81 79 90 91 99 99 93 92 83 83 77 77 72 73 69 67 66 69 75 71
60 58 56 54 53 58 64 68 67 68 66 65 63 64 63 61 84 87 75 71 76 78 78 84 84 90 78 97 97 99 98 98 84 79 81 79 73 77 82 80 77 71 72
60 58 57 55 52 52 58 64 63 63 68 64 65 61 60 52 76 88 82 77 72 70 71 73 85 91 83 83 76 94 98 97 89 77 77 84 84 83 92 98 96 92 80
59 58 56 56 53 51 53 55 52 59 66 65 65 56 49 62 77 90 82 65 72 68 69 68 74 97 99 85 83 79 90 100 100 98 97 91 94 99 99 99 98 100 92
58 56 56 54 51 47 46 45 44 50 53 56 54 55 57 70 82 93 84 77 65 66 69 66 70 77 94 97 91 91 87 88 95 82 88 98 98 97 90 100 99 90 87
60 56 54 53 49 42 41 34 37 40 44 43 46 54 58 65 92 89 87 77 75 74 66 71 67 74 83 89 79 78 73 79 88 86 77 76 76 76 81 94 84 87 96
62 58 55 53 48 40 34 31 33 36 39 44 47 52 56 58 66 92 90 77 73 64 62 71 76 79 82 92 84 81 78 85 96 94 98 86 97 100 96 94 81 82 79
64 60 57 55 51 45 37 36 38 42 45 51 54 55 57 58 62 93 84 76 71 67 58 66 87 86 80 76 84 76 77 81 80 87 95 98 94 77 98 94 100 93 87
62 58 59 59 56 52 48 48 47 49 51 52 50 57 59 58 64 92 82 73 77 76 55 61 66 90 81 80 83 78 75 81 89 80 88 91 87 86 86 85 100 95 92
58 60 61 62 59 54 54 52 51 54 55 54 54 51 55 57 66 81 82 74 77 76 65 68 71 88 86 88 87 86 83 92 73 83 95 90 90 97 99 89 95 100 100
60 60 60 61 60 56 58 55 54 55 55 54 55 52 53 56 60 73 84 76 75 76 67 63 83 85 85 83 88 89 92 73 82 84 81 86 89 89 86 90 95 98 99
62 59 61 63 60 56 58 59 59 58 58 56 60 64 64 62 61 76 76 75 66 76 69 68 75 70 61 52 72 84 60 79 87 81 78 79 82 86 94 94 88 93 94
61 58 63 66 62 61 61 63 62 59 60 62 65 75 76 75 70 82 80 78 65 62 62 49 56 54 52 55 49 48 56 82 82 84 84 85 83 82 83 94 96 92 95
58 57 65 70 66 64 64 62 62 58 61 65 72 86 84 86 79 87 83 83 77 81 68 58 69 72 71 69 70 66 63 73 74 83 83 80 79 79 79 85 91 94 92
64 63 64 72 72 70 68 65 62 63 61 73 79 85 83 83 87 86 88 89 82 82 69 78 79 80 78 79 76 74 72 76 78 82 82 84 82 81 80 78 80 80 78
67 63 63 75 77 76 74 68 69 52 61 61 62 65 75 90 89 91 90 72 77 78 84 88 89 88 85 85 84 84 79 81 80 83 80 81 82 81 83 80 78 77 73
68 67 68 69 76 79 78 73 69 80 80 67 59 66 82 92 87 89 72 71 79 82 92 96 96 93 92 92 91 89 90 84 85 83 81 82 83 82 78 76 79 83 81
73 73 76 81 82 82 80 80 80 78 77 72 69 68 82 84 79 79 78 85 93 93 97 98 98 97 98 98 97 93 92 89 85 87 88 87 85 86 79 78 82 84 80
74 73 75 77 82 87 88 86 82 79 80 79 78 78 94 91 89 89 90 95 98 98 99 99 98 98 98 94 93 89 89 88 90 94 98 94 90 89 82 79 78 78 75
74 78 88 89 92 90 88 87 83 83 82 82 83 87 96 95 98 98 99 99 100 100 100 99 97 91 85 87 89 93 94 97 99 100 98 91 86 83 80 78 78 75 73
74 77 83 92 89 90 89 87 87 84 85 90 93 96 100 99 100 100 98 99 100 100 100 96 90 86 83 87 85 89 89 99 100 100 98 90 83 75 75 73 70 69 70
77 81 84 86 86 89 97 93 89 88 91 93 94 100 100 99 100 100 99 99 99 100 93 91 89 87 82 85 90 86 86 92 100 100 96 80 65 69 74 72 68 68 69
80 84 85 86 90 95 96 95 91 89 88 93 98 96 96 95 96 96 98 99 100 100 98 95 95 93 87 86 86 82 81 86 93 70 56 50 52 57 69 72 69 71 75
85 87 86 87 88 100 98 92 87 91 97 98 96 92 90 91 90 92 97 100 100 100 97 96 96 96 98 92 89 88 84 80 68 56 48 47 51 53 60 71 72 76 83
92 90 87 87 88 90 91 91 98 100 98 93 89 89 89 91 90 96 99 98 98 99 99 100 100 100 100 100 100 100 100 93 65 53 47 45 52 56 69 71 77 81 87
Wind_Speed
7 7 8 9 9 9 11 13 14 14 14 15 17 17 19 18 17 16 16 13 15 15 15 17 18 22 19 12 10 9 6 4 4 5 3 8 8 11 9 8 6 6 7
7 7 8 8 9 10 11 13 14 15 15 15 16 16 16 19 16 15 16 14 13 15 15 15 17 18 21 16 10 9 7 5 5 6 5 6 9 12 10 7 7 6 4
7 8 8 9 10 12 12 13 13 14 15 14 15 15 16 17 18 14 15 15 13 12 12 13 13 16 18 19 16 17 12 4 5 6 5 5 6 11 10 9 8 7 6
7 9 9 8 9 11 12 13 14 14 14 15 14 17 16 16 19 10 14 17 14 13 13 14 14 14 13 15 16 15 14 11 6 5 4 4 6 7 8 9 10 12 11
8 9 10 9 9 10 11 12 12 12 12 13 15 15 16 12 14 13 17 19 15 14 13 13 14 13 13 12 14 12 14 12 8 8 6 5 5 7 9 9 8 13 13
11 10 9 8 8 8 10 11 11 10 11 11 12 14 15 11 12 16 14 21 16 15 15 15 15 15 16 7 14 11 10 9 7 7 6 5 6 5 7 6 9 9 5
13 11 10 8 8 8 7 8 9 9 9 11 12 13 14 12 12 15 13 18 16 15 14 14 14 14 15 8 13 13 11 9 8 6 5 6 8 8 8 7 6 6 6
15 14 12 10 9 7 7 6 7 8 8 10 11 12 13 13 13 14 14 17 16 14 13 12 12 13 13 7 11 13 12 11 9 6 6 6 7 12 8 5 7 9 11
17 16 13 11 10 9 8 7 8 9 10 10 12 13 13 14 14 13 15 16 16 15 12 11 10 11 13 11 10 11 13 12 12 8 6 5 6 5 4 4 4 5 5
19 16 13 12 12 11 11 11 11 11 13 13 13 13 14 15 13 12 13 15 14 15 14 11 10 11 11 11 11 10 14 12 13 14 10 9 8 7 6 5 3 4 4
17 15 14 12 12 12 12 13 13 14 14 14 14 13 13 13 14 12 12 12 14 15 13 13 13 12 11 11 10 9 11 10 11 9 7 8 8 8 7 6 6 5 7
17 17 15 12 12 12 13 12 13 14 15 14 14 14 13 13 11 12 12 12 12 15 12 13 12 12 11 11 10 10 9 9 8 7 6 6 7 8 8 7 8 8 10
18 18 16 13 12 11 12 12 13 13 13 14 13 13 15 12 13 10 12 13 12 12 12 12 12 12 12 12 12 10 10 8 8 8 8 7 7 7 8 7 8 8 10
20 18 16 14 12 11 11 12 13 14 13 13 13 13 15 14 14 11 12 14 13 14 14 13 11 11 12 12 14 14 11 9 8 7 8 9 8 8 7 6 8 9 10
20 19 17 14 13 12 12 12 12 12 12 13 13 15 15 12 13 11 9 11 10 12 13 11 11 11 11 12 11 12 12 11 10 10 9 10 9 9 9 7 8 10 12
20 19 17 15 13 12 12 13 12 11 10 10 12 10 11 11 11 9 8 9 8 10 10 8 10 10 10 11 12 12 11 12 11 11 11 10 10 10 10 9 9 9 11
22 19 16 14 13 11 10 11 12 11 8 7 8 8 7 7 7 6 8 9 8 9 7 8 8 9 10 10 11 12 12 12 12 11 10 10 11 11 12 11 11 11 12
23 19 16 15 13 12 11 11 10 9 9 10 7 6 5 6 6 7 8 7 7 9 7 7 7 8 9 10 10 12 11 12 12 12 12 11 10 11 11 11 11 12 13
25 21 17 14 13 12 11 11 10 9 8 9 9 4 5 6 5 6 8 8 7 8 8 8 8 8 9 10 9 10 11 10 12 12 11 10 11 11 12 11 11 12 13
25 21 17 15 13 12 12 11 9 8 7 6 5 4 6 7 5 7 7 7 6 7 8 8 9 9 9 10 10 11 11 9 10 11 10 11 13 12 12 13 12 13 13
26 23 17 15 14 13 12 10 8 8 6 5 3 1 3 4 3 4 5 5 6 7 8 9 9 9 10 9 9 10 10 9 9 10 11 12 13 14 12 12 12 12 12
27 24 21 18 15 14 12 10 8 7 5 3 3 3 2 2 2 3 3 5 6 7 8 9 9 8 9 9 9 10 10 10 10 11 12 12 12 12 11 11 12 13 13
27 25 21 18 15 13 10 10 8 7 5 3 3 1 1 2 2 3 4 5 6 6 7 8 8 8 8 8 8 9 10 11 12 13 14 13 12 11 11 11 11 12 13
27 26 23 18 14 13 12 10 9 7 5 3 2 3 2 2 2 2 3 4 5 5 6 7 8 8 8 8 8 8 9 12 13 14 14 12 12 11 10 10 10 11 10
28 27 24 21 16 13 11 11 9 8 6 5 4 3 3 2 1 1 3 4 3 4 5 6 6 7 8 8 8 9 9 10 12 13 12 10 10 10 10 8 9 9 9
27 28 26 22 18 15 13 12 10 9 8 6 5 5 4 3 1 0 2 3 5 5 6 6 6 6 8 9 11 10 11 11 12 12 11 10 10 10 8 9 10 9 10
Wind_Direction
280 297 307 319 321 323 329 340 342 343 342 341 342 349 0 358 356 357 357 351 359 358 3 9 1 3 357 349 330 323 317 302 321 355 354 8 5 13 19 34 43 57 59
282 292 304 314 319 319 325 333 338 338 336 333 337 340 345 352 352 353 355 354 353 355 356 360 1 2 1 8 1 317 319 309 321 325 326 346 5 10 10 19 30 34 31
278 290 306 320 320 321 325 329 333 332 333 336 344 342 341 343 356 349 354 359 356 357 358 356 355 358 9 4 358 6 3 315 306 311 320 337 344 2 3 15 23 22 22
272 284 296 312 316 322 325 326 330 328 331 335 339 345 343 340 353 353 354 357 356 359 358 358 356 351 0 7 11 4 354 352 300 291 302 336 344 347 8 5 1 4 357
248 269 288 305 311 316 319 325 331 331 330 334 340 343 346 351 357 357 3 356 352 355 356 355 358 351 350 3 1 358 360 2 8 16 21 353 358 359 5 348 343 343 342
231 248 269 289 301 311 318 327 335 338 338 342 345 350 355 355 354 355 353 355 353 352 347 349 354 1 357 352 2 4 4 11 36 27 357 349 351 335 347 341 342 348 332
228 238 249 267 283 300 312 325 333 344 347 348 351 353 358 355 346 345 350 349 349 346 344 345 349 359 2 2 19 16 21 23 15 360 347 343 327 322 308 301 328 321 292
227 233 242 253 267 285 298 317 326 335 343 347 351 351 352 357 349 340 348 348 350 348 344 347 348 351 353 333 0 6 7 7 2 353 329 315 319 334 259 278 303 305 311
231 237 244 252 263 271 290 303 318 327 333 335 336 343 345 351 351 345 341 343 346 347 350 348 346 346 350 353 346 353 354 353 354 350 338 323 317 323 332 281 292 327 322
233 239 249 259 269 276 284 294 305 310 318 323 327 331 338 338 348 345 341 339 338 340 349 354 359 352 347 350 347 351 351 350 351 360 16 15 359 335 312 298 278 289 292
232 238 247 262 271 276 284 290 297 303 305 313 320 330 337 339 343 345 342 337 335 334 341 346 356 354 351 351 349 351 348 336 342 349 354 2 4 6 359 321 297 267 260
227 233 242 257 265 271 277 289 294 301 305 313 321 327 339 345 342 345 341 336 334 329 338 340 345 348 354 355 357 350 345 339 344 344 344 347 357 357 349 337 319 297 273
223 230 237 249 255 264 272 282 291 297 299 308 316 321 331 339 345 346 344 337 335 332 339 330 342 351 2 11 6 358 356 357 347 341 340 339 330 317 323 328 331 321 316
222 228 234 245 254 259 268 279 287 294 296 299 303 312 320 329 338 347 340 334 335 337 340 341 353 1 13 13 18 13 11 4 345 332 328 327 332 330 323 318 318 320 311
222 227 229 236 247 261 268 275 280 288 290 288 296 308 310 315 327 332 329 328 331 334 331 346 4 5 7 5 9 12 10 4 0 350 337 333 328 328 324 321 303 306 303
223 227 230 232 240 252 266 279 277 285 288 280 282 285 305 312 317 331 330 329 330 336 339 2 6 0 353 350 358 4 6 3 358 350 343 340 336 332 328 325 318 310 302
225 232 235 234 237 245 256 270 289 293 291 287 290 301 316 329 333 349 336 334 336 344 360 4 6 354 338 343 353 360 359 355 358 352 346 344 341 336 335 334 333 326 318
225 230 236 238 238 244 252 264 274 286 304 313 319 337 343 354 347 355 345 345 359 6 2 3 355 344 338 348 353 352 348 358 357 351 348 346 345 339 337 335 333 328 324
221 223 225 236 240 244 247 255 267 276 286 298 317 341 348 355 349 352 1 16 2 356 354 359 352 345 346 353 349 350 350 352 350 349 348 349 346 342 336 334 326 324 326
221 225 224 228 235 237 241 249 259 266 275 286 304 330 353 347 359 2 7 6 1 353 352 354 355 350 350 356 353 351 350 352 356 358 353 346 341 339 335 334 333 331 331
215 215 214 219 224 233 240 243 248 255 263 272 280 279 327 322 336 354 357 1 360 351 351 355 355 356 352 356 353 351 350 353 356 351 344 339 336 335 336 333 331 332 330
213 211 209 213 223 231 237 237 232 240 242 239 253 266 311 289 311 2 10 352 351 351 355 355 352 355 355 352 356 354 351 346 339 339 335 332 333 335 336 338 339 339 340
209 207 207 212 219 224 215 215 210 216 227 243 266 260 287 290 301 329 335 336 345 347 2 1 355 358 4 2 2 1 351 346 340 328 327 333 339 340 338 340 343 346 348
207 204 205 205 210 208 202 205 206 209 207 207 204 199 220 262 283 304 320 336 341 357 8 6 358 360 7 11 12 9 1 353 343 338 339 339 345 351 351 347 349 351 354
203 201 201 202 201 199 198 199 195 193 194 184 180 203 196 186 194 304 325 336 354 6 8 10 7 6 6 8 17 11 3 356 351 349 351 351 356 3 7 5 2 2 10
198 197 201 206 201 196 195 194 196 192 182 176 180 192 191 182 183 253 330 352 349 357 354 360 2 4 7 7 7 3 1 359 359 358 360 5 9 14 16 19 19 21 23